Regional Weather Roundup
Issued by NWS

Home | Current Version | Previous Version | Text Only | Print | Product List | Glossary Off
Versions: 1 2 3 4 5 6 7 8 9 10 11 12 13 14 15 16 17 18 19 20 21 22 23 24 25 26 27 28

000
ASUS45 KBOU 010907
RWRCO

WEATHER ROUNDUP FOR COLORADO
NATIONAL WEATHER SERVICE DENVER/BOULDER CO
300 AM MDT SAT NOV 01 2014

NOTE: "FAIR" INDICATES FEW OR NO CLOUDS BELOW 12000 FEET WITH NO
SIGNIFICANT WEATHER AND/OR OBSTRUCTIONS TO VISIBILITY.

COZ001>005-013-030-031-011000-
...NORTHWEST COLORADO...

CITY           SKY/WX    TMP DP  RH WIND       PRES   REMARKS
CRAIG          PTCLDY    33  26  75 NW5       30.02F WCI  29
HAYDEN         PTCLDY    43  25  49 E12       30.05S
MEEKER         MOCLDY    41  31  67 CALM      30.03F
MOUNT WERNER   NOT AVBL
STEAMBOAT SPGS PTCLDY    37  26  63 CALM      30.08S
WALDEN         PTCLDY    34  27  75 SE8       30.13S WCI  27
$$

COZ006>008-011-011000-
...WEST CENTRAL VALLEYS...

CITY           SKY/WX    TMP DP  RH WIND       PRES   REMARKS
GRAND JUNCTION LGT RAIN  56  27  32 E13       29.98R
MONTROSE       MOCLDY    49  30  48 S6        30.07R
EAGLE          PTCLDY    36  25  64 SE3       30.13S
RIFLE          PTCLDY    41  28  60 CALM      30.03R
DELTA          MOCLDY    45  31  59 NE3       30.03F
NUCLA          MOCLDY    57  36  44 SE6       30.08F
$$

COZ017>023-064>068-011000-
...SOUTHWEST COLORADO...

CITY           SKY/WX    TMP DP  RH WIND       PRES   REMARKS
DURANGO        CLOUDY    48  42  80 NE9       30.21F
CORTEZ         CLEAR     57  38  48 SE24G35   30.08F
PAGOSA SPRINGS RAIN      44  44  99 CALM      30.28S
TELLURIDE      PTCLDY    48  34  58 SE14G22   30.25F
WOLF CREEK PAS SNOW      30  30 100 SW14G22   30.38F VSB<1/4 WCI  20
$$

COZ009-010-012-014-032>034-037-058>063-011000-
...CENTRAL COLORADO...

CITY           SKY/WX    TMP DP  RH WIND       PRES   REMARKS
ASPEN          PTCLDY    50  25  37 SE12      30.13S
BUENA VISTA    CLEAR     30  22  71 W7        30.23S WCI  23
COPPER MTN     CLEAR     39  23  52 S13G24    30.34F
BERTHOUD PASS  FAIR      32  28  86 W17G25    30.36R WCI  21
COTTONWOOD PAS CLEAR     37  23  56 CALM      30.29R
GUNNISON       PTCLDY    34  19  55 N10       30.23F WCI  26
KREMMLING      PTCLDY    32  25  74 CALM      30.17S
LEADVILLE      CLOUDY    28  16  60 CALM      30.26F
MONARCH PASS   PTCLDY    30  27  86 SW20      30.46F WCI  18
SALIDA         NOT AVBL
SUNLIGHT       PTCLDY    39  28  65 CALM      30.27F
WILKERSON PASS NOT AVBL
$$

COZ069>075-011000-
...SAN LUIS VALLEY/SANGRE DE CRISTO MOUNTAINS...

CITY           SKY/WX    TMP DP  RH WIND       PRES   REMARKS
ALAMOSA        MOCLDY    44  30  57 SE10      30.25S
LA VETA PASS   MOCLDY    37  32  81 S15G23    30.27S
SAGUACHE       CLOUDY    34  23  64 NW3       30.28S
$$

COZ035-036-038>040-011000-
...NORTHERN COLORADO FRONT RANGE...

CITY           SKY/WX    TMP DP  RH WIND       PRES   REMARKS
DENVER INTL AP PTCLDY    43  30  60 SW5       30.00F
DMNS CITY PARK   N/A     37  30  78 SW3       30.00S
AURORA         PTCLDY    45  27  49 SW12      30.00F
FRONT RANGE AP CLEAR     36  32  87 S9        30.01S
ERIE MUNI ARPT CLEAR     31  29  92 CALM      30.00F
BOULDER MUN AP CLEAR     37  32  81 CALM      30.00S
CENTENNIAL     PTCLDY    44  26  49 E6        30.01S
BROOMFIELD     CLEAR     43  30  61 CALM      30.01S
FORT COLLINS   MOCLDY    36  30  80 N3        30.01F
LONGMONT       MOCLDY    33  29  86 CALM      30.02S
$$

COZ041-046-047-076>085-087-088-011000-
...PIKES PEAK/PALMER DIVIDE AND SOUTHERN FOOTHILLS...

CITY           SKY/WX    TMP DP  RH WIND       PRES   REMARKS
COLO. SPRINGS  PTCLDY    38  28  67 N5        30.07F
A. F. ACADEMY  PTCLDY    37  26  64 VRB1      30.07F
ELLICOTT       PTCLDY    33  26  75 NE3       30.06F
FALCON         PTCLDY    41  26  53 NW6       30.10S
FORT CARSON    PTCLDY    37  28  69 N3        30.05F
LIMON          PTCLDY    24  22  91 CALM      30.06F
MONUMENT HILL  CLEAR     50  25  37 SW14G21   30.08S
TRINIDAD       PTCLDY    52  31  44 W21       30.08S
$$

COZ042>045-048>051-090-091-011000-
...NORTHEAST COLORADO...

CITY           SKY/WX    TMP DP  RH WIND       PRES   REMARKS
GREELEY ARPT   MOCLDY    32  21  64 CALM      30.02S
AKRON          CLEAR     31  24  75 SE9       30.01F WCI  23
BURLINGTON     PTCLDY    35  21  56 S25       30.06F WCI  23
WRAY           CLEAR     31  21  67 E7        30.10S WCI  24
STERLING       CLEAR     34  27  75 S6        30.02F WCI  29
HOLYOKE        CLEAR     30  19  64 SE10      30.08F WCI  21
FORT MORGAN    CLEAR     30  25  82 E3        30.00F
$$

COZ086-089-092>099-011000-
...SOUTHEAST COLORADO...

CITY           SKY/WX    TMP DP  RH WIND       PRES   REMARKS
PUEBLO         PTCLDY    35  26  69 W5        30.05F WCI  31
LA JUNTA       PTCLDY    39  28  64 W8        30.04F
LAMAR          CLEAR     41  29  62 SE12      30.05F
SPRINGFIELD      N/A     41  30  65 S24G32    30.10F
$$



USA.gov is the U.S. government's official web portal to all federal, state and local government web resources and services.